Location: Unnamed
(48.2382°N, 16.3826°E)
Time: 19:45:36
(UTC+02:00)

Falcon 9 debris - Visible Passes

Search period start: 20 July 2019 00:00
Search period end: 30 July 2019 00:00
Orbit: 431 x 439 km, 53.0° (Epoch: 19 July)

Date Brightness Start Highest point End Pass type
(mag) Time Alt. Az. Time Alt. Az. Time Alt. Az.
20 Jul 5.8 01:05:34 11° E 01:05:34 11° E 01:05:51 10° E visible
20 Jul 3.1 02:38:50 41° WSW 02:39:55 80° NNW 02:43:23 10° ENE visible
20 Jul 4.6 04:14:02 10° WNW 04:17:16 36° N 04:20:30 10° ENE visible
21 Jul 3.0 01:57:49 75° ESE 01:57:49 75° ESE 02:01:07 10° ENE visible
21 Jul 4.4 03:31:38 10° W 03:34:54 39° N 03:38:11 10° ENE visible
22 Jul 4.4 01:16:46 32° E 01:16:46 32° E 01:18:49 10° ENE visible
22 Jul 4.2 02:50:02 16° W 02:52:34 44° NNW 02:55:54 10° ENE visible
22 Jul 4.6 04:26:49 10° WNW 04:30:05 38° N 04:33:20 10° ENE visible
23 Jul 5.4 00:35:40 16° E 00:35:40 16° E 00:36:29 10° ENE visible
23 Jul 3.9 02:08:55 31° WNW 02:10:14 51° NNW 02:13:37 10° ENE visible
23 Jul 4.7 03:44:30 10° WNW 03:47:43 36° N 03:50:56 10° ENE visible
24 Jul 3.4 01:27:45 62° NW 01:27:54 63° NNW 01:31:21 10° ENE visible
24 Jul 4.7 03:02:07 10° WNW 03:05:21 35° N 03:08:34 10° ENE visible
24 Jul 3.9 04:39:23 10° WNW 04:42:48 57° NNE 04:46:12 10° E visible
25 Jul 3.8 00:46:28 48° NE 00:46:28 48° NE 00:49:05 10° ENE visible
25 Jul 4.6 02:19:44 10° WNW 02:22:58 36° N 02:26:12 10° ENE visible
25 Jul 4.2 03:57:07 10° WNW 04:00:28 47° NNE 04:03:49 10° E visible
26 Jul 4.6 00:05:02 28° ENE 00:05:02 28° ENE 00:06:49 10° ENE visible
26 Jul 4.5 01:38:16 17° WNW 01:40:36 39° N 01:43:53 10° ENE visible
26 Jul 4.5 03:14:49 10° WNW 03:18:07 41° NNE 03:21:25 10° E visible
26 Jul 4.8 23:23:08 22° ENE 23:23:08 22° ENE 23:24:30 10° ENE visible
27 Jul 4.2 00:56:18 21° WNW 00:58:14 44° NNW 01:01:35 10° ENE visible
27 Jul 4.6 02:32:29 10° WNW 02:35:45 37° N 02:39:00 10° ENE visible
27 Jul 3.1 04:09:36 10° WNW 04:13:03 89° SSW 04:16:30 10° ESE visible
27 Jul 3.5 22:35:39 10° SSW 22:38:54 39° SE 22:42:09 10° ENE visible
28 Jul 3.9 00:12:31 10° W 00:15:53 52° NNW 00:19:17 10° ENE visible
28 Jul 4.7 01:50:09 10° WNW 01:53:23 36° N 01:56:36 10° ENE visible
28 Jul 3.4 03:27:19 10° WNW 03:30:46 71° NNE 03:34:12 10° ESE visible
28 Jul 4.0 21:53:43 10° SSW 21:56:43 28° SE 21:59:43 10° E visible
28 Jul 3.5 23:30:08 10° WSW 23:33:34 64° NNW 23:37:01 10° ENE visible
29 Jul 4.7 01:07:46 10° WNW 01:10:59 35° N 01:14:12 10° ENE visible
29 Jul 3.8 02:45:03 10° WNW 02:48:27 56° NNE 02:51:51 10° E visible
29 Jul 3.8 04:22:14 10° WNW 04:25:23 34° SW 04:28:32 10° SSE visible
29 Jul 4.5 21:11:59 10° S 21:14:34 20° SE 21:17:09 10° E visible
29 Jul 3.1 22:47:48 10° WSW 22:51:16 83° NNW 22:54:44 10° ENE visible
